Location: Praha
(50.0830°N, 14.4670°E)
Time: 00:13:15
(UTC+02:00)

ISS - Pass Details

Date: 17 September 2023
Orbit: 414 x 421 km, 51.6° (Epoch: 25 September)

Event Time Altitude Azimuth Distance (km) Brightness Sun altitude
Rises 22:23:32 0° 272° (W) 2,353 0.7 -28.4°
Reaches altitude 10° 22:25:38 10° 276° (W) 1,491 -0.4 -28.6°
Enters shadow 22:26:02 13° 277° (W) 1,333 -0.7 -28.7°
